Date String (YYYY-MM-DD hh:mm:ss) UTC,Instrument flags,Ambient pressure (hPa),Sample flow (lpm),Bypass flow (lpm),Sample temperature (°C),Ambient temperature (°C),ASC tube jacket temperature (°C),LED temperature (°C),Box temperature (°C),Sample RH (%),Span deviation,Mass concentration (μg/m³),Mass concentration (μg/m³),Mass concentration (μg/m³)
DateTimeUTC,F1_M11,P_M11,Q1_M11,Q2_M11,T1_M11,T2_M11,T3_M11,T4_M11,T5_M11,U1_M11,ZSPAN_M11,X0_M11,X2_M11,X1_M11
2023-05-11 23:00:00,,0824.6,5.00,0.00,27.5,26.0,00.0,35.9,29.3,29.8,0000.0,0005.88,0003.20,0002.32
2023-05-11 23:01:00,,0824.6,4.99,0.00,27.5,26.0,00.0,35.9,29.2,29.8,0000.0,0006.13,0003.21,0002.34
2023-05-11 23:02:00,,0824.6,5.00,0.00,27.5,26.0,00.0,35.9,29.3,29.8,0000.0,0006.15,0003.22,0002.37
2023-05-11 23:03:00,,0824.7,5.01,0.00,27.5,26.0,00.0,35.9,29.3,29.8,0000.0,0006.14,0003.23,0002.41
2023-05-11 23:04:00,,0824.6,5.01,0.00,27.5,26.0,00.0,35.9,29.3,29.9,0000.0,0006.15,0003.25,0002.43
2023-05-11 23:05:00,,0824.6,4.99,0.00,27.5,26.0,00.0,35.9,29.3,29.9,0000.0,0006.16,0003.27,0002.46
2023-05-11 23:06:00,,0824.6,4.99,0.00,27.5,26.0,00.0,35.9,29.3,29.9,0000.0,0006.34,0003.29,0002.49
2023-05-11 23:07:00,,0824.5,5.00,0.00,27.5,26.0,00.0,35.9,29.3,30.0,0000.0,0006.20,0003.31,0002.53
2023-05-11 23:08:00,,0824.5,5.00,0.00,27.5,26.0,00.0,35.9,29.3,30.1,0000.0,0005.93,0003.27,0002.55
2023-05-11 23:09:00,,0824.5,4.99,0.00,27.5,26.0,00.0,35.9,29.3,30.0,0000.0,0005.95,0003.27,0002.58
2023-05-11 23:10:00,,0824.5,5.00,0.00,27.5,26.0,00.0,35.9,29.3,30.1,0000.0,0006.00,0003.28,0002.60
2023-05-11 23:11:00,,0824.5,5.00,0.00,27.6,26.0,00.0,35.9,29.3,30.3,0000.0,0005.81,0003.28,0002.62
2023-05-11 23:12:00,,0824.5,5.00,0.00,27.6,26.1,00.0,35.9,29.3,30.2,0000.0,0005.57,0003.28,0002.63
2023-05-11 23:13:00,,0824.5,5.01,0.00,27.6,26.1,00.0,35.9,29.3,30.2,0000.0,0005.57,0003.29,0002.66
2023-05-11 23:14:00,,0824.5,5.01,0.00,27.6,26.1,00.0,35.9,29.3,30.2,0000.0,0005.91,0003.33,0002.70
2023-05-11 23:15:00,,0824.4,5.00,0.00,27.6,26.1,00.0,35.9,29.3,30.0,0000.0,0006.10,0003.36,0002.75
2023-05-11 23:16:00,,0824.4,5.00,0.00,27.6,26.1,00.0,35.9,29.3,30.1,0000.0,0006.26,0003.39,0002.79
2023-05-11 23:17:00,,0824.4,5.01,0.00,27.6,26.1,00.0,36.0,29.3,30.2,0000.0,0006.04,0003.39,0002.82
2023-05-11 23:18:00,,0824.5,5.00,0.00,27.6,26.1,00.0,36.0,29.3,30.3,0000.0,0005.81,0003.37,0002.83
2023-05-11 23:19:00,,0824.5,4.99,0.00,27.6,26.1,00.0,36.0,29.3,30.3,0000.0,0006.02,0003.43,0002.86
2023-05-11 23:20:00,,0824.5,4.99,0.00,27.6,26.1,00.0,36.0,29.3,30.3,0000.0,0005.98,0003.45,0002.90
2023-05-11 23:21:00,,0824.5,4.99,0.00,27.6,26.1,00.0,36.0,29.3,30.2,0000.0,0006.00,0003.47,0002.93
2023-05-11 23:22:00,,0824.5,5.00,0.00,27.6,26.1,00.0,36.0,29.3,30.2,0000.0,0006.02,0003.49,0002.95
2023-05-11 23:23:00,,0824.4,5.01,0.00,27.6,26.1,00.0,36.0,29.3,30.3,0000.0,0007.29,0003.56,0003.00
2023-05-11 23:24:00,,0824.4,5.00,0.00,27.6,26.1,00.0,36.0,29.3,30.2,0000.0,0007.45,0003.61,0003.03
2023-05-11 23:25:00,,0824.4,5.00,0.00,27.6,26.1,00.0,36.0,29.4,30.4,0000.0,0007.47,0003.65,0003.04
2023-05-11 23:26:00,,0824.5,5.00,0.00,27.6,26.1,00.0,36.0,29.4,30.5,0000.0,0007.49,0003.67,0003.03
2023-05-11 23:27:00,,0824.5,4.99,0.00,27.6,26.1,00.0,36.0,29.3,30.4,0000.0,0007.54,0003.66,0003.04
2023-05-11 23:28:00,,0824.5,5.00,0.00,27.6,26.1,00.0,36.0,29.3,30.3,0000.0,0007.56,0003.68,0003.06
2023-05-11 23:29:00,,0824.5,5.00,0.00,27.6,26.1,00.0,36.0,29.3,30.4,0000.0,0007.66,0003.70,0003.06
2023-05-11 23:30:00,,0824.6,5.00,0.00,27.6,26.1,00.0,36.0,29.3,30.5,0000.0,0007.63,0003.68,0003.06
2023-05-11 23:31:00,,0824.5,5.01,0.00,27.6,26.1,00.0,36.0,29.3,30.5,0000.0,0007.75,0003.72,0003.07
2023-05-11 23:32:00,,0824.5,5.01,0.00,27.6,26.1,00.0,36.0,29.4,30.4,0000.0,0007.75,0003.73,0003.09
2023-05-11 23:33:00,,0824.5,5.01,0.00,27.6,26.1,00.0,36.0,29.3,30.6,0000.0,0007.76,0003.74,0003.10
2023-05-11 23:34:00,,0824.5,5.00,0.00,27.6,26.1,00.0,36.0,29.3,30.7,0000.0,0007.02,0003.70,0003.10
2023-05-11 23:35:00,,0824.4,5.00,0.00,27.6,26.1,00.0,36.0,29.3,30.7,0000.0,0006.85,0003.71,0003.10
2023-05-11 23:36:00,,0824.5,5.00,0.00,27.6,26.2,00.0,36.0,29.3,30.7,0000.0,0006.60,0003.67,0003.11
2023-05-11 23:37:00,,0824.5,5.00,0.00,27.7,26.2,00.0,36.0,29.4,30.9,0000.0,0006.49,0003.68,0003.12
2023-05-11 23:38:00,,0824.5,5.00,0.00,27.7,26.2,00.0,36.0,29.4,31.0,0000.0,0006.45,0003.70,0003.14
2023-05-11 23:39:00,,0824.5,5.02,0.00,27.7,26.2,00.0,36.0,29.4,31.0,0000.0,0006.77,0003.72,0003.14
2023-05-11 23:40:00,,0824.5,5.00,0.00,27.7,26.2,00.0,36.0,29.4,31.1,0000.0,0006.72,0003.71,0003.15
2023-05-11 23:41:00,,0824.5,4.99,0.00,27.7,26.2,00.0,36.0,29.4,31.0,0000.0,0006.72,0003.72,0003.16
2023-05-11 23:42:00,,0824.5,4.99,0.00,27.7,26.2,00.0,36.0,29.4,31.0,0000.0,0006.69,0003.70,0003.16
2023-05-11 23:43:00,,0824.6,5.00,0.00,27.7,26.2,00.0,36.0,29.4,31.0,0000.0,0006.51,0003.65,0003.15
2023-05-11 23:44:00,,0824.6,5.01,0.00,27.7,26.2,00.0,36.0,29.4,31.1,0000.0,0006.54,0003.65,0003.15
2023-05-11 23:45:00,,0824.6,5.01,0.00,27.7,26.2,00.0,36.1,29.4,31.0,0000.0,0006.78,0003.67,0003.14
2023-05-11 23:46:00,,0824.7,5.00,0.00,27.7,26.2,00.0,36.1,29.4,30.9,0000.0,0007.18,0003.65,0003.14
2023-05-11 23:47:00,,0824.7,5.00,0.00,27.7,26.2,00.0,36.1,29.4,30.8,0000.0,0007.00,0003.59,0003.12
2023-05-11 23:48:00,,0824.7,5.00,0.00,27.7,26.2,00.0,36.1,29.4,30.8,0000.0,0007.21,0003.60,0003.10
2023-05-11 23:49:00,,0824.7,5.00,0.00,27.7,26.2,00.0,36.1,29.4,30.9,0000.0,0007.37,0003.58,0003.06
2023-05-11 23:50:00,,0824.7,5.00,0.00,27.7,26.2,00.0,36.1,29.4,30.8,0000.0,0007.40,0003.59,0003.02
2023-05-11 23:51:00,,0824.7,5.00,0.00,27.7,26.2,00.0,36.1,29.4,30.7,0000.0,0007.52,0003.62,0003.01
2023-05-11 23:52:00,,0824.7,5.00,0.00,27.7,26.2,00.0,36.1,29.4,30.8,0000.0,0007.55,0003.63,0003.01
2023-05-11 23:53:00,,0824.7,5.00,0.00,27.7,26.2,00.0,36.1,29.4,30.9,0000.0,0007.55,0003.62,0002.97
2023-05-11 23:54:00,,0824.7,5.00,0.00,27.7,26.2,00.0,36.1,29.4,30.8,0000.0,0008.20,0003.61,0002.93
2023-05-11 23:55:00,,0824.7,5.00,0.00,27.7,26.2,00.0,36.1,29.4,30.8,0000.0,0008.22,0003.59,0002.86
2023-05-11 23:56:00,,0824.7,5.00,0.00,27.7,26.2,00.0,36.1,29.4,30.8,0000.0,0008.23,0003.57,0002.81
2023-05-11 23:57:00,,0824.7,5.00,0.00,27.7,26.2,00.0,36.1,29.4,30.8,0000.0,0008.20,0003.58,0002.77
2023-05-11 23:58:00,,0824.7,4.99,0.00,27.7,26.2,00.0,36.1,29.4,30.7,0000.0,0008.22,0003.61,0002.75
2023-05-11 23:59:00,,0824.7,4.99,0.00,27.7,26.2,00.0,36.1,29.4,30.7,0000.0,0008.10,0003.58,0002.71
